Zurück zum Katalog

COSMOS 1250

AktivMilitärLEO
NORAD 12320·PAYLOAD·🇷🇺 Russia

Gestartet Mar 6, 1981 von Plesetsk Cosmodrome

Loading…

Nächste Überflüge (nächste 24 Stunden)

TLE

AktuellSource: Space-Track

Epoche: Sep 14, 2026, 08:57 UTC

1 12320U 81022A   26257.37298412 -.00000020  00000-0 -19263-4 0  9998
2 12320  74.0274 230.2698 0053155 280.8630 234.0388 12.58283483 91125

Verfolge COSMOS 1250 in Echtzeit mit AllMySat

Download on the App Store